{"data":{"norad_id":60361,"epoch":"2026-05-25T04:06:50.224032Z","epoch_age_seconds":53502,"freshness":"FRESH","line1":"1 60361U 24138G   26145.17141463  .00000327  00000+0  23171-4 0  9998","line2":"2 60361  53.1616 314.6042 0001136  90.0838 270.0293 15.30193098102341","mean_motion":15.30193098,"eccentricity":0.0001136,"inclination_deg":53.1616,"raan_deg":314.6042,"arg_perigee_deg":90.0838,"mean_anomaly_deg":270.0293,"bstar":2.3171e-5,"rev_number":10234,"period_min":94.105770172543,"perigee_km":474.45713448851,"apogee_km":476.01422076087,"semimajor_km":6853.3726776247,"source":"CELESTRAK","updated_at":"2026-05-25T13:38:19.238829Z"}}